DW9566 Weather Reports


time (UTC)temp
C
wind
direction
speed
KPH
gust
KPH
rain 1hr
cm
rain 24hr
cm
rain mn
cm
humidity
%
barometer
mb
20260507001622 22 209 9.7 12.9 0.00 0.00 0.00 58 1018.1
20260507000624 22 190 4.8 24.1 0.00 0.00 0.00 61 1018.3
20260506235624 22 268 11.3 19.3 0.00 0.00 0.00 58 1018.3
20260506234634 22 266 11.3 17.7 0.00 0.00 0.00 58 1018.3
20260506233619 23 281 8.0 17.7 0.00 0.00 0.00 58 1018.3
20260506232622 23 221 8.0 17.7 0.00 0.00 0.00 58 1018.2
20260506231625 23 211 9.7 14.5 0.00 0.00 0.00 57 1018.2
20260506230635 23 263 9.7 17.7 0.00 0.00 0.00 57 1018.4
20260506225632 23 301 6.4 22.5 0.00 0.00 0.00 56 1018.4
20260506224634 23 259 6.4 20.9 0.00 0.00 0.00 55 1018.4
20260506223617 24 159 4.8 17.7 0.00 0.00 0.00 56 1018.7
20260506222625 23 255 9.7 16.1 0.00 0.00 0.00 56 1018.9
20260506221628 23 292 8.0 17.7 0.00 0.00 0.00 55 1018.9
20260506220631 23 233 11.3 19.3 0.00 0.00 0.00 57 1018.9
20260506215650 23 245 6.4 12.9 0.00 0.00 0.00 58 1019.1
20260506214631 23 268 11.3 19.3 0.00 0.00 0.00 56 1019.1
20260506213641 23 233 11.3 19.3 0.00 0.00 0.00 57 1019.2
20260506212625 23 274 8.0 16.1 0.00 0.00 0.00 57 1019.3
20260506211629 23 235 8.0 19.3 0.00 0.00 0.00 58 1019.3
20260506210632 23 211 8.0 17.7 0.00 0.00 0.00 59 1019.4
20260506205636 23 327 4.8 19.3 0.00 0.00 0.00 58 1019.4
20260506204638 23 215 9.7 20.9 0.00 0.00 0.00 56 1019.4
20260506203622 23 242 4.8 12.9 0.00 0.00 0.00 57 1019.5
20260506202626 22 199 6.4 14.5 0.00 0.00 0.00 58 1019.9
20260506201627 22 192 4.8 14.5 0.00 0.00 0.00 60 1019.9
20260506200635 22 272 9.7 16.1 0.00 0.00 0.00 58 1020.0
20260506195632 22 256 9.7 17.7 0.00 0.00 0.00 59 1020.1
20260506194635 22 271 4.8 17.7 0.00 0.00 0.00 59 1020.1
20260506193616 22 271 4.8 14.5 0.00 0.00 0.00 60 1020.2
20260506192643 22 215 8.0 17.7 0.00 0.00 0.00 60 1020.4
20260506191626 22 220 8.0 16.1 0.00 0.00 0.00 58 1020.4
20260506190629 22 267 8.0 14.5 0.00 0.00 0.00 61 1020.4
20260506185630 21 231 4.8 14.5 0.00 0.00 0.00 60 1020.4
20260506184616 21 250 4.8 11.3 0.00 0.00 0.00 61 1020.4
20260506183618 21 290 1.6 12.9 0.00 0.00 0.00 62 1020.5
20260506182622 20 200 8.0 11.3 0.00 0.00 0.00 64 1020.5
20260506181625 20 279 4.8 12.9 0.00 0.00 0.00 63 1020.5
20260506180648 20 153 3.2 12.9 0.00 0.00 0.00 59 1020.5
20260506175630 20 99 6.4 9.7 0.00 0.00 0.00 64 1020.5
20260506174636 20 217 4.8 11.3 0.00 0.00 0.00 65 1020.5
20260506173621 20 198 6.4 16.1 0.00 0.00 0.00 64 1020.5
20260506172623 19 192 6.4 11.3 0.00 0.00 0.00 66 1020.5
20260506171652 20 223 6.4 9.7 0.00 0.00 0.00 65 1020.5
20260506170634 19 209 4.8 11.3 0.00 0.00 0.00 68 1020.6
20260506165618 18 132 6.4 11.3 0.00 0.00 0.00 69 1020.6
20260506164620 17 200 3.2 11.3 0.00 0.00 0.00 70 1020.6
20260506163622 16 222 4.8 8.0 0.00 0.00 0.00 72 1020.6
20260506162630 15 192 1.6 3.2 0.00 0.00 0.00 72 1020.6
20260506161653 15 239 1.6 4.8 0.00 0.00 0.00 73 1020.6
20260506160634 15 271 3.2 4.8 0.00 0.00 0.00 73 1020.6
20260506155631 15 196 0.0 6.4 0.00 0.03 0.00 74 1020.6
20260506154616 15 203 3.2 6.4 0.00 0.03 0.00 76 1020.6
20260506153643 15 219 3.2 8.0 0.00 0.03 0.00 75 1020.6
20260506152629 14 172 1.6 3.2 0.00 0.03 0.00 76 1020.5
20260506151650 14 172 1.6 6.4 0.00 0.03 0.00 75 1020.5
20260506150614 14 22 1.6 3.2 0.00 0.03 0.00 77 1020.5
20260506145619 13 272 1.6 1.6 0.00 0.03 0.00 78 1020.5
20260506144622 13 272 1.6 3.2 0.00 0.03 0.00 80 1020.5
20260506143627 13 276 0.0 0.0 0.00 0.03 0.00 82 1020.5
20260506142631 12 276 0.0 0.0 0.00 0.03 0.00 82 1020.3
20260506141617 11 277 0.0 0.0 0.00 0.03 0.00 81 1020.3
20260506140622 11 277 0.0 0.0 0.00 0.03 0.00 81 1020.0
20260506135643 11 277 0.0 0.0 0.00 0.03 0.00 81 1019.9
20260506134624 12 277 0.0 1.6 0.00 0.03 0.00 80 1019.9
20260506133629 12 277 1.6 3.2 0.00 0.03 0.00 80 1019.9
20260506132635 12 277 0.0 3.2 0.00 0.03 0.00 80 1019.8
20260506131617 12 277 0.0 0.0 0.00 0.03 0.00 80 1019.8
20260506130622 12 277 0.0 4.8 0.00 0.03 0.00 80 1019.5
20260506125619 12 277 1.6 3.2 0.00 0.03 0.00 79 1019.5
20260506124646 12 277 0.0 1.6 0.00 0.03 0.00 79 1019.5
20260506123630 12 277 1.6 6.4 0.00 0.03 0.00 79 1019.5
20260506122633 12 267 1.6 6.4 0.00 0.03 0.00 79 1019.4
20260506121635 12 281 1.6 4.8 0.00 0.03 0.00 79 1019.4
20260506120622 12 290 0.0 3.2 0.00 0.03 0.00 79 1019.5
20260506115618 12 285 0.0 4.8 0.00 0.03 0.00 80 1019.4
20260506114641 12 296 1.6 3.2 0.00 0.03 0.00 80 1019.4
20260506113623 12 277 1.6 4.8 0.00 0.03 0.00 80 1019.2
20260506112625 12 263 1.6 4.8 0.00 0.03 0.00 80 1019.0
20260506111634 12 261 3.2 6.4 0.00 0.03 0.00 80 1019.0
20260506110657 12 274 1.6 6.4 0.00 0.03 0.00 80 1019.0
20260506105634 12 290 1.6 6.4 0.00 0.03 0.00 80 1019.0
20260506104616 12 277 3.2 4.8 0.00 0.03 0.00 80 1019.0
20260506103623 12 288 0.0 6.4 0.00 0.03 0.00 80 1019.0
20260506102629 12 339 0.0 4.8 0.00 0.03 0.00 80 1018.9
20260506101614 12 269 3.2 4.8 0.00 0.03 0.00 80 1018.9
20260506100639 12 308 1.6 6.4 0.00 0.03 0.00 81 1018.9
20260506095623 12 287 0.0 3.2 0.00 0.05 0.00 81 1018.9
20260506094630 11 327 1.6 4.8 0.00 0.05 0.00 81 1018.9
20260506093632 11 271 3.2 4.8 0.00 0.05 0.00 81 1018.9
20260506092618 11 269 1.6 4.8 0.00 0.05 0.00 81 1018.9
20260506091641 11 318 0.0 4.8 0.00 0.05 0.00 81 1018.9
20260506090628 12 269 1.6 4.8 0.00 0.05 0.00 81 1018.9
20260506085632 12 275 1.6 3.2 0.00 0.15 0.00 81 1018.9
20260506084639 12 275 0.0 4.8 0.00 0.15 0.00 81 1018.9
20260506083621 12 263 3.2 4.8 0.00 0.15 0.00 81 1018.9
20260506082643 12 263 3.2 6.4 0.00 0.15 0.00 81 1019.0
20260506081631 12 306 1.6 6.4 0.00 0.15 0.00 81 1019.0
20260506080634 12 310 0.0 4.8 0.00 0.15 0.00 81 1019.0
20260506072642 11 276 3.2 8.0 0.00 0.23 0.15 81 1018.6
20260506071624 11 265 4.8 9.7 0.00 0.23 0.15 82 1018.6
20260506070647 11 257 6.4 9.7 0.00 0.23 0.15 82 1018.5
20260506061621 11 263 4.8 6.4 0.00 0.25 0.15 80 1018.3
20260506060630 12 292 3.2 4.8 0.00 0.25 0.15 80 1018.4
20260506050626 12 242 6.4 12.9 0.00 0.28 0.15 78 1017.9
20260506044628 12 293 4.8 11.3 0.00 0.28 0.15 78 1017.8
20260506043615 12 269 6.4 12.9 0.00 0.28 0.15 78 1017.5
20260506042620 12 229 4.8 11.3 0.00 0.28 0.15 78 1017.4
20260506041622 13 228 4.8 6.4 0.00 0.28 0.15 78 1017.4
20260506040629 13 232 4.8 8.0 0.00 0.28 0.15 78 1017.3
20260506035647 13 220 6.4 11.3 0.00 0.28 0.15 78 1017.1
20260506034628 13 222 4.8 11.3 0.00 0.28 0.15 77 1017.1
20260506033631 13 226 4.8 12.9 0.00 0.28 0.15 77 1016.8
20260506032654 13 219 4.8 9.7 0.00 0.28 0.15 77 1016.7
20260506031619 13 221 8.0 16.1 0.00 0.28 0.15 76 1016.7
20260506030642 13 226 4.8 14.5 0.00 0.28 0.15 76 1016.3
20260506025617 13 229 6.4 11.3 0.00 0.28 0.15 75 1016.4
20260506024623 14 264 6.4 11.3 0.00 0.28 0.15 74 1016.4
20260506023630 14 236 8.0 14.5 0.00 0.28 0.15 74 1016.3
20260506022617 14 238 6.4 16.1 0.00 0.28 0.15 74 1016.2
20260506021619 15 216 11.3 17.7 0.00 0.28 0.15 73 1016.2
20260506020621 15 234 8.0 16.1 0.00 0.28 0.15 73 1016.1
20260506015620 15 202 9.7 14.5 0.00 0.28 0.15 73 1015.9
20260506014627 15 211 8.0 16.1 0.00 0.28 0.15 73 1015.9
20260506013632 15 234 6.4 16.1 0.00 0.28 0.15 72 1015.9
20260506012654 15 221 8.0 12.9 0.00 0.28 0.15 72 1016.0
20260506011656 15 252 9.7 16.1 0.00 0.28 0.15 72 1016.0
20260506010657 16 227 9.7 16.1 0.00 0.28 0.15 72 1015.9
20260506005619 16 222 8.0 16.1 0.00 0.28 0.15 71 1015.8
20260506004621 16 277 8.0 16.1 0.00 0.28 0.15 72 1015.8
20260506003623 16 217 11.3 14.5 0.00 0.28 0.15 72 1015.8
20260506002626 16 225 8.0 12.9 0.00 0.28 0.15 71 1015.7